Location: Unspecified
(54.1780°N, 0.0000°E)
Time: 03:30:51
(UTC+00:00)

Explorer 7 - Pass Details

Date: 26 June 2019
Orbit: 485 x 680 km, 50.3° (Epoch: 18 July)

Event Time Altitude Azimuth Distance (km) Brightness Sun altitude
Rises 10:39:55 0° 267° (W) 2,823 10.3 55.5°
Reaches altitude 10° 10:42:11 10° 262° (W) 1,954 9.6 55.7°
Maximum altitude 10:46:32 51° 187° (S) 794 9.2 56.0°
Drops below altitude 10° 10:51:09 10° 112° (ESE) 2,061 10.3 56.4°
Sets 10:53:35 0° 107° (ESE) 2,994 10.9 56.6°
